Weather History for Seward, AK

Change the Weather History Date:

Wednesday, July 17, 2013

  Actual Average Record
Temperature  
Mean Temperature 68 °F -  
Max Temperature 79 °F 63 °F 80 °F (1974)
Min Temperature 59 °F 50 °F 44 °F (1955)
Cooling Degree Days 4    
Growing Degree Days 18 (Base 50)    
Moisture  
Dew Point 54 °F    
Average Humidity 60    
Maximum Humidity 75    
Minimum Humidity 46    
Precipitation  
Precipitation 0.00 in - - ()
Sea Level Pressure  
Sea Level Pressure 30.06 in    
Wind  
Wind Speed 10 mph (North)    
Max Wind Speed 17 mph    
Max Gust Speed 23 mph    
Visibility 10 miles    
Events      
Averages and records for this station are not official NWS values.
T = Trace of Precipitation, MM = Missing Value Source: NWS Daily Summary

Daily Weather History Graph

Daily Weather History Graph

Search for Another Location

Airport:

Trip Planner

Search our weather history database for the weather conditions in past years. The results will help you decide how hot, cold, wet, or windy it might be!

Date:

Astronomy

Jul. 17, 2013 Rise Set
Actual Time 5:05 AM AKDT 11:01 PM AKDT
Civil Twilight 3:48 AM AKDT 12:16 AM AKDT
Nautical Twilight Sun does not rise Sun does not rise
Astronomical Twilight Sun does not rise Sun does not rise
Moon 5:39 PM AKDT (7/17) 12:54 AM AKDT (7/17)
Length of Visible Light 20h 27m
Length of Day
17h 56m
Waxing Gibbous, 68% of the Moon is Illuminated
Jul 17
Waxing Gibbous
Jul 22
Full
Jul 29
Last Quarter
Aug 6
New
Aug 14
First Quarter

Hourly Weather History & Observations

Time (AKDT) Temp. Dew Point Humidity Pressure Visibility Wind Dir Wind Speed Gust Speed Precip Events Conditions
12:53 AM 64.9 °F 52.0 °F 63% 30.11 in 10.0 mi North 10.4 mph - N/A   Clear
1:53 AM 64.0 °F 51.1 °F 63% 30.11 in 10.0 mi North - - N/A   Clear
2:53 AM 62.1 °F 52.0 °F 70% 30.10 in 10.0 mi North 9.2 mph - N/A   Clear
3:53 AM 61.0 °F 51.1 °F 70% 30.09 in 10.0 mi North 12.7 mph 20.7 mph N/A   Clear
4:53 AM 61.0 °F 51.1 °F 70% 30.08 in 10.0 mi North 13.8 mph - N/A   Clear
5:53 AM 59.0 °F 51.1 °F 75% 30.09 in 10.0 mi North 10.4 mph 18.4 mph N/A   Clear
6:53 AM 60.1 °F 51.1 °F 72% 30.08 in 10.0 mi North 15.0 mph 19.6 mph N/A   Clear
7:53 AM 63.0 °F 51.1 °F 65% 30.08 in 10.0 mi NNE 12.7 mph 20.7 mph N/A   Clear
8:53 AM 64.0 °F 52.0 °F 65% 30.08 in 10.0 mi NNE 12.7 mph 19.6 mph N/A   Clear
9:53 AM 66.9 °F 53.1 °F 61% 30.07 in 10.0 mi North 11.5 mph - N/A   Clear
10:53 AM 72.0 °F 53.1 °F 51% 30.06 in 10.0 mi NNW 10.4 mph 17.3 mph N/A   Clear
11:53 AM 75.0 °F 54.0 °F 48% 30.06 in 10.0 mi NNW 13.8 mph 18.4 mph N/A   Clear
12:53 PM 75.0 °F 55.0 °F 50% 30.05 in 10.0 mi North 8.1 mph - N/A   Scattered Clouds
1:53 PM 78.1 °F 55.9 °F 46% 30.04 in 10.0 mi North 8.1 mph - N/A   Clear
2:53 PM 73.0 °F 57.9 °F 59% 30.04 in 10.0 mi South 8.1 mph - N/A   Overcast
3:53 PM 71.1 °F 59.0 °F 66% 30.04 in 10.0 mi SSE 4.6 mph - N/A   Overcast
4:53 PM 72.0 °F 55.9 °F 57% 30.04 in 10.0 mi SSE 5.8 mph - N/A   Overcast
5:53 PM 75.9 °F 55.9 °F 50% 30.02 in 10.0 mi NW 6.9 mph - N/A   Overcast
6:53 PM 75.9 °F 57.0 °F 52% 30.02 in 10.0 mi NW 17.3 mph 23.0 mph N/A   Mostly Cloudy
7:53 PM 75.9 °F 55.9 °F 50% 30.03 in 10.0 mi NW 5.8 mph - N/A   Overcast
8:53 PM 73.9 °F 55.9 °F 53% 30.04 in 10.0 mi NNE 4.6 mph - N/A   Overcast
9:53 PM 72.0 °F 55.9 °F 57% 30.05 in 10.0 mi North 6.9 mph - N/A   Overcast
10:53 PM 71.1 °F 55.0 °F 57% 30.06 in 10.0 mi NW 5.8 mph - N/A   Mostly Cloudy
11:53 PM 69.1 °F 55.0 °F 61% 30.08 in 10.0 mi NNE 8.1 mph - N/A   Overcast